Year,Month,Day,Hour,Minute,Value (Times are PST for windspeed in km/hr)
2008,08,30,00,00,7.10
2008,08,30,00,01,5.70
2008,08,30,00,02,5.30
2008,08,30,00,03,4.70
2008,08,30,00,04,5.80
2008,08,30,00,05,6.60
2008,08,30,00,06,8.30
2008,08,30,00,07,5.50
2008,08,30,00,08,7.50
2008,08,30,00,09,6.00
2008,08,30,00,10,10.00
2008,08,30,00,11,6.80
2008,08,30,00,12,7.20
2008,08,30,00,13,4.70
2008,08,30,00,14,7.20
2008,08,30,00,15,5.40
2008,08,30,00,16,6.80
2008,08,30,00,17,9.70
2008,08,30,00,18,5.90
2008,08,30,00,19,5.00
2008,08,30,00,20,8.40
2008,08,30,00,21,6.50
2008,08,30,00,22,8.10
2008,08,30,00,23,6.60
2008,08,30,00,24,4.00
2008,08,30,00,25,5.60
2008,08,30,00,26,5.00
2008,08,30,00,27,5.60
2008,08,30,00,28,4.70
2008,08,30,00,29,5.30
2008,08,30,00,30,6.40
2008,08,30,00,31,2.90
2008,08,30,00,32,3.10
2008,08,30,00,33,9.30
2008,08,30,00,34,9.10
2008,08,30,00,35,5.50
2008,08,30,00,36,3.60
2008,08,30,00,37,1.40
2008,08,30,00,38,3.10
2008,08,30,00,39,2.40
2008,08,30,00,40,3.70
2008,08,30,00,41,2.80
2008,08,30,00,42,1.60
2008,08,30,00,43,1.70
2008,08,30,00,44,0.50
2008,08,30,00,45,1.40
2008,08,30,00,46,1.00
2008,08,30,00,47,2.10
2008,08,30,00,48,4.00
2008,08,30,00,49,2.50
2008,08,30,00,50,1.30
2008,08,30,00,51,1.40
2008,08,30,00,52,4.00
2008,08,30,00,53,1.70
2008,08,30,00,54,0.70
2008,08,30,00,55,0.50
2008,08,30,00,56,0.00
2008,08,30,00,57,0.50
2008,08,30,00,58,1.00
2008,08,30,00,59,0.50
2008,08,30,01,00,0.80
2008,08,30,01,01,0.20
2008,08,30,01,02,0.30
2008,08,30,01,03,0.60
2008,08,30,01,04,3.30
2008,08,30,01,05,3.90
2008,08,30,01,06,3.80
2008,08,30,01,07,1.80
2008,08,30,01,08,0.80
2008,08,30,01,09,1.50
2008,08,30,01,10,3.20
2008,08,30,01,11,1.30
2008,08,30,01,12,3.10
2008,08,30,01,13,2.20
2008,08,30,01,14,0.50
2008,08,30,01,15,1.70
2008,08,30,01,16,1.40
2008,08,30,01,17,2.10
2008,08,30,01,18,1.40
2008,08,30,01,19,2.90
2008,08,30,01,20,2.70
2008,08,30,01,21,3.70
2008,08,30,01,22,1.90
2008,08,30,01,23,3.40
2008,08,30,01,24,2.90
2008,08,30,01,25,3.70
2008,08,30,01,26,3.80
2008,08,30,01,27,4.30
2008,08,30,01,28,2.70
2008,08,30,01,29,3.70
2008,08,30,01,30,5.40
2008,08,30,01,31,3.90
2008,08,30,01,32,2.20
2008,08,30,01,33,5.40
2008,08,30,01,34,5.30
2008,08,30,01,35,8.00
2008,08,30,01,36,5.40
2008,08,30,01,37,5.00
2008,08,30,01,38,7.50
2008,08,30,01,39,5.50
2008,08,30,01,40,3.50
2008,08,30,01,41,5.00
2008,08,30,01,42,3.70
2008,08,30,01,43,5.50
2008,08,30,01,44,4.70
2008,08,30,01,45,3.90
2008,08,30,01,46,6.00
2008,08,30,01,47,3.10
2008,08,30,01,48,4.50
2008,08,30,01,49,3.00
2008,08,30,01,50,3.90
2008,08,30,01,51,3.50
2008,08,30,01,52,3.20
2008,08,30,01,53,3.50
2008,08,30,01,54,1.80
2008,08,30,01,55,2.10
2008,08,30,01,56,1.50
2008,08,30,01,57,5.90
2008,08,30,01,58,6.20
2008,08,30,01,59,6.20
2008,08,30,02,00,2.20
2008,08,30,02,01,5.30
2008,08,30,02,02,3.60
2008,08,30,02,03,5.30
2008,08,30,02,04,4.10
2008,08,30,02,05,4.10
2008,08,30,02,06,3.90
2008,08,30,02,07,3.30
2008,08,30,02,08,3.90
2008,08,30,02,09,4.10
2008,08,30,02,10,3.60
2008,08,30,02,11,4.40
2008,08,30,02,12,3.00
2008,08,30,02,13,4.90
2008,08,30,02,14,3.50
2008,08,30,02,15,0.20
2008,08,30,02,16,3.60
2008,08,30,02,17,5.70
2008,08,30,02,18,5.30
2008,08,30,02,19,4.40
2008,08,30,02,20,6.50
2008,08,30,02,21,6.10
2008,08,30,02,22,4.90
2008,08,30,02,23,2.40
2008,08,30,02,24,1.80
2008,08,30,02,25,4.90
2008,08,30,02,26,3.90
2008,08,30,02,27,2.40
2008,08,30,02,28,2.90
2008,08,30,02,29,1.60
2008,08,30,02,30,0.40
2008,08,30,02,31,1.00
2008,08,30,02,32,0.10
2008,08,30,02,33,1.10
2008,08,30,02,34,0.00
2008,08,30,02,35,0.00
2008,08,30,02,36,0.30
2008,08,30,02,37,1.30
2008,08,30,02,38,0.10
2008,08,30,02,39,0.10
2008,08,30,02,40,0.00
2008,08,30,02,41,1.10
2008,08,30,02,42,1.10
2008,08,30,02,43,0.00
2008,08,30,02,44,0.00
2008,08,30,02,45,0.00
2008,08,30,02,46,1.00
2008,08,30,02,47,0.30
2008,08,30,02,48,0.00
2008,08,30,02,49,0.30
2008,08,30,02,50,0.30
2008,08,30,02,51,1.40
2008,08,30,02,52,1.30
2008,08,30,02,53,2.70
2008,08,30,02,54,1.00
2008,08,30,02,55,0.50
2008,08,30,02,56,0.10
2008,08,30,02,57,0.00
2008,08,30,02,58,1.30
2008,08,30,02,59,1.00
2008,08,30,03,00,0.00
2008,08,30,03,01,0.00
2008,08,30,03,02,1.30
2008,08,30,03,03,1.00
2008,08,30,03,04,2.10
2008,08,30,03,05,2.10
2008,08,30,03,06,3.80
2008,08,30,03,07,3.70
2008,08,30,03,08,4.10
2008,08,30,03,09,5.80
2008,08,30,03,10,4.70
2008,08,30,03,11,4.90
2008,08,30,03,12,6.50
2008,08,30,03,13,9.00
2008,08,30,03,14,8.80
2008,08,30,03,15,6.50
2008,08,30,03,16,4.30
2008,08,30,03,17,4.60
2008,08,30,03,18,6.90
2008,08,30,03,19,4.70
2008,08,30,03,20,7.50
2008,08,30,03,21,4.70
2008,08,30,03,22,5.70
2008,08,30,03,23,4.50
2008,08,30,03,24,6.80
2008,08,30,03,25,4.80
2008,08,30,03,26,5.10
2008,08,30,03,27,3.80
2008,08,30,03,28,2.80
2008,08,30,03,29,4.50
2008,08,30,03,30,6.30
2008,08,30,03,31,4.80
2008,08,30,03,32,2.00
2008,08,30,03,33,3.30
2008,08,30,03,34,4.10
2008,08,30,03,35,3.60
2008,08,30,03,36,5.60
2008,08,30,03,37,7.70
2008,08,30,03,38,5.70
2008,08,30,03,39,5.50
2008,08,30,03,40,3.40
2008,08,30,03,41,4.30
2008,08,30,03,42,5.60
2008,08,30,03,43,5.40
2008,08,30,03,44,6.90
2008,08,30,03,45,5.10
2008,08,30,03,46,7.90
2008,08,30,03,47,4.10
2008,08,30,03,48,3.00
2008,08,30,03,49,2.90
2008,08,30,03,50,1.10
2008,08,30,03,51,3.90
2008,08,30,03,52,3.30
2008,08,30,03,53,2.80
2008,08,30,03,54,2.70
2008,08,30,03,55,0.90
2008,08,30,03,56,2.20
2008,08,30,03,57,1.30
2008,08,30,03,58,1.10
2008,08,30,03,59,0.10
2008,08,30,04,00,0.30
2008,08,30,04,01,0.00
2008,08,30,04,02,0.10
2008,08,30,04,03,0.00
2008,08,30,04,04,0.80
2008,08,30,04,05,0.00
2008,08,30,04,06,0.00
2008,08,30,04,07,0.00
2008,08,30,04,08,0.00
2008,08,30,04,09,0.00
2008,08,30,04,10,0.50
2008,08,30,04,11,0.20
2008,08,30,04,12,0.40
2008,08,30,04,13,0.00
2008,08,30,04,14,0.20
2008,08,30,04,15,0.00
2008,08,30,04,16,0.00
2008,08,30,04,17,0.00
2008,08,30,04,18,0.00
2008,08,30,04,19,0.00
2008,08,30,04,20,0.00
2008,08,30,04,21,0.00
2008,08,30,04,22,0.00
2008,08,30,04,23,0.00
2008,08,30,04,24,0.00
2008,08,30,04,25,0.00
2008,08,30,04,26,0.00
2008,08,30,04,27,0.00
2008,08,30,04,28,0.00
2008,08,30,04,29,0.00
2008,08,30,04,30,0.10
2008,08,30,04,31,1.30
2008,08,30,04,32,1.10
2008,08,30,04,33,1.30
2008,08,30,04,34,0.60
2008,08,30,04,35,1.60
2008,08,30,04,36,1.20
2008,08,30,04,37,1.30
2008,08,30,04,38,0.00
2008,08,30,04,39,0.00
2008,08,30,04,40,0.40
2008,08,30,04,41,0.50
2008,08,30,04,42,2.30
2008,08,30,04,43,0.40
2008,08,30,04,44,1.80
2008,08,30,04,45,1.70
2008,08,30,04,46,3.70
2008,08,30,04,47,2.00
2008,08,30,04,48,2.10
2008,08,30,04,49,3.40
2008,08,30,04,50,3.90
2008,08,30,04,51,5.60
2008,08,30,04,52,3.60
2008,08,30,04,53,4.10
2008,08,30,04,54,3.50
2008,08,30,04,55,4.50
2008,08,30,04,56,8.00
2008,08,30,04,57,3.80
2008,08,30,04,58,7.10
2008,08,30,04,59,7.30
2008,08,30,05,00,4.30
2008,08,30,05,01,4.90
2008,08,30,05,02,3.50
2008,08,30,05,03,5.30
2008,08,30,05,04,3.70
2008,08,30,05,05,2.00
2008,08,30,05,06,2.70
2008,08,30,05,07,3.90
2008,08,30,05,08,6.00
2008,08,30,05,09,4.90
2008,08,30,05,10,3.20
2008,08,30,05,11,2.50
2008,08,30,05,12,5.00
2008,08,30,05,13,4.30
2008,08,30,05,14,6.30
2008,08,30,05,15,7.20
2008,08,30,05,16,4.30
2008,08,30,05,17,1.30
2008,08,30,05,18,3.90
2008,08,30,05,19,3.70
2008,08,30,05,20,2.50
2008,08,30,05,21,2.10
2008,08,30,05,22,5.10
2008,08,30,05,23,4.20
2008,08,30,05,24,4.10
2008,08,30,05,25,7.60
2008,08,30,05,26,5.30
2008,08,30,05,27,3.20
2008,08,30,05,28,2.60
2008,08,30,05,29,5.40
2008,08,30,05,30,6.10
2008,08,30,05,31,2.60
2008,08,30,05,32,3.40
2008,08,30,05,33,5.20
2008,08,30,05,34,8.90
2008,08,30,05,35,6.90
2008,08,30,05,36,1.90
2008,08,30,05,37,4.50
2008,08,30,05,38,3.40
2008,08,30,05,39,7.00
2008,08,30,05,40,7.50
2008,08,30,05,41,6.60
2008,08,30,05,42,4.50
2008,08,30,05,43,2.80
2008,08,30,05,44,4.00
2008,08,30,05,45,4.40
2008,08,30,05,46,5.10
2008,08,30,05,47,4.70
2008,08,30,05,48,5.00
2008,08,30,05,49,6.40
2008,08,30,05,50,5.00
2008,08,30,05,51,6.00
2008,08,30,05,52,5.90
2008,08,30,05,53,6.60
2008,08,30,05,54,6.80
2008,08,30,05,55,5.80
2008,08,30,05,56,7.20
2008,08,30,05,57,5.50
2008,08,30,05,58,6.30
2008,08,30,05,59,5.30
2008,08,30,06,00,5.60
2008,08,30,06,01,3.60
2008,08,30,06,02,3.10
2008,08,30,06,03,3.10
2008,08,30,06,04,3.00
2008,08,30,06,05,2.70
2008,08,30,06,06,1.90
2008,08,30,06,07,0.80
2008,08,30,06,08,0.40
2008,08,30,06,09,1.40
2008,08,30,06,10,2.50
2008,08,30,06,11,2.60
2008,08,30,06,12,4.10
2008,08,30,06,13,3.80
2008,08,30,06,14,2.10
2008,08,30,06,15,2.50
2008,08,30,06,16,2.80
2008,08,30,06,17,2.30
2008,08,30,06,18,1.20
2008,08,30,06,19,1.60
2008,08,30,06,20,0.00
2008,08,30,06,21,0.40
2008,08,30,06,22,3.00
2008,08,30,06,23,1.70
2008,08,30,06,24,2.10
2008,08,30,06,25,0.80
2008,08,30,06,26,1.90
2008,08,30,06,27,1.80
2008,08,30,06,28,1.50
2008,08,30,06,29,1.20
2008,08,30,06,30,3.00
2008,08,30,06,31,2.60
2008,08,30,06,32,1.40
2008,08,30,06,33,3.40
2008,08,30,06,34,4.30
2008,08,30,06,35,2.30
2008,08,30,06,36,2.40
2008,08,30,06,37,1.10
2008,08,30,06,38,2.40
2008,08,30,06,39,3.10
2008,08,30,06,40,3.70
2008,08,30,06,41,1.30
2008,08,30,06,42,0.70
2008,08,30,06,43,1.50
2008,08,30,06,44,0.50
2008,08,30,06,45,0.00
2008,08,30,06,46,0.80
2008,08,30,06,47,1.50
2008,08,30,06,48,0.90
2008,08,30,06,49,1.00
2008,08,30,06,50,2.00
2008,08,30,06,51,3.00
2008,08,30,06,52,0.90
2008,08,30,06,53,0.90
2008,08,30,06,54,2.00
2008,08,30,06,55,1.80
2008,08,30,06,56,3.10
2008,08,30,06,57,3.70
2008,08,30,06,58,1.70
2008,08,30,06,59,1.10
2008,08,30,07,00,2.20
2008,08,30,07,01,0.60
2008,08,30,07,02,0.20
2008,08,30,07,03,0.30
2008,08,30,07,04,0.10
2008,08,30,07,05,0.60
2008,08,30,07,06,2.00
2008,08,30,07,07,0.90
2008,08,30,07,08,0.30
2008,08,30,07,09,0.10
2008,08,30,07,10,1.00
2008,08,30,07,11,0.30
2008,08,30,07,12,0.00
2008,08,30,07,13,0.70
2008,08,30,07,14,2.90
2008,08,30,07,15,1.10
2008,08,30,07,16,0.40
2008,08,30,07,17,0.80
2008,08,30,07,18,1.30
2008,08,30,07,19,0.40
2008,08,30,07,20,3.90
2008,08,30,07,21,2.20
2008,08,30,07,22,3.30
2008,08,30,07,23,2.60
2008,08,30,07,24,5.60
2008,08,30,07,25,3.20
2008,08,30,07,26,3.10
2008,08,30,07,27,1.60
2008,08,30,07,28,1.10
2008,08,30,07,29,3.60
2008,08,30,07,30,2.60
2008,08,30,07,31,6.90
2008,08,30,07,32,5.00
2008,08,30,07,33,3.20
2008,08,30,07,34,3.50
2008,08,30,07,35,3.80
2008,08,30,07,36,3.30
2008,08,30,07,37,5.30
2008,08,30,07,38,6.40
2008,08,30,07,39,6.30
2008,08,30,07,40,2.30
2008,08,30,07,41,1.80
2008,08,30,07,42,5.20
2008,08,30,07,43,4.90
2008,08,30,07,44,4.70
2008,08,30,07,45,3.20
2008,08,30,07,46,3.20
2008,08,30,07,47,4.40
2008,08,30,07,48,5.20
2008,08,30,07,49,4.40
2008,08,30,07,50,5.00
2008,08,30,07,51,8.70
2008,08,30,07,52,8.00
2008,08,30,07,53,6.90
2008,08,30,07,54,5.80
2008,08,30,07,55,4.90
2008,08,30,07,56,8.40
2008,08,30,07,57,6.40
2008,08,30,07,58,5.70
2008,08,30,07,59,6.10
2008,08,30,08,00,6.50
2008,08,30,08,01,7.20
2008,08,30,08,02,6.40
2008,08,30,08,03,3.90
2008,08,30,08,04,6.00
2008,08,30,08,05,2.30
2008,08,30,08,06,4.10
2008,08,30,08,07,5.90
2008,08,30,08,08,4.50
2008,08,30,08,09,5.10
2008,08,30,08,10,2.10
2008,08,30,08,11,5.60
2008,08,30,08,12,5.20
2008,08,30,08,13,6.30
2008,08,30,08,14,3.50
2008,08,30,08,15,5.00
2008,08,30,08,16,3.90
2008,08,30,08,17,3.10
2008,08,30,08,18,5.70
2008,08,30,08,19,5.10
2008,08,30,08,20,6.70
2008,08,30,08,21,6.80
2008,08,30,08,22,4.70
2008,08,30,08,23,4.60
2008,08,30,08,24,5.20
2008,08,30,08,25,4.90
2008,08,30,08,26,7.00
2008,08,30,08,27,5.70
2008,08,30,08,28,4.50
2008,08,30,08,29,5.70
2008,08,30,08,30,6.80
2008,08,30,08,31,11.40
2008,08,30,08,32,8.80
2008,08,30,08,33,6.00
2008,08,30,08,34,6.00
2008,08,30,08,47,7.30
2008,08,30,08,48,6.00
2008,08,30,08,49,4.80
2008,08,30,08,50,7.10
2008,08,30,08,51,7.90
2008,08,30,08,52,4.80
2008,08,30,08,53,6.10
2008,08,30,08,54,4.30
2008,08,30,08,55,3.60
2008,08,30,08,56,4.70
2008,08,30,08,57,3.80
2008,08,30,08,58,2.60
2008,08,30,08,59,4.10
2008,08,30,09,00,2.90
2008,08,30,09,01,11.40
2008,08,30,09,02,8.60
2008,08,30,09,03,6.40
2008,08,30,09,04,9.50
2008,08,30,09,05,13.60
2008,08,30,09,06,10.00
2008,08,30,09,07,8.40
2008,08,30,09,08,5.60
2008,08,30,09,09,10.40
2008,08,30,09,10,6.10
2008,08,30,09,11,5.20
2008,08,30,09,12,5.20
2008,08,30,09,13,8.60
2008,08,30,09,14,6.00
2008,08,30,09,15,4.00
2008,08,30,09,16,6.80
2008,08,30,09,17,4.10
2008,08,30,09,18,0.30
2008,08,30,09,19,4.50
2008,08,30,09,20,4.40
2008,08,30,09,21,5.10
2008,08,30,09,22,3.90
2008,08,30,09,23,4.20
2008,08,30,09,24,8.50
2008,08,30,09,25,6.90
2008,08,30,09,26,7.40
2008,08,30,09,27,5.00
2008,08,30,09,28,4.50
2008,08,30,09,29,10.00
2008,08,30,09,30,12.30
2008,08,30,09,31,10.70
2008,08,30,09,32,9.40
2008,08,30,09,33,10.20
2008,08,30,09,34,15.20
2008,08,30,09,35,8.80
2008,08,30,09,36,6.00
2008,08,30,09,37,5.50
2008,08,30,09,38,8.40
2008,08,30,09,39,8.00
2008,08,30,09,40,6.90
2008,08,30,09,41,7.60
2008,08,30,09,42,8.60
2008,08,30,09,43,7.10
2008,08,30,09,44,4.70
2008,08,30,09,45,7.50
2008,08,30,09,46,12.20
2008,08,30,09,47,15.80
2008,08,30,09,48,10.40
2008,08,30,09,49,8.60
2008,08,30,09,50,8.60
2008,08,30,09,51,8.80
2008,08,30,09,52,9.50
2008,08,30,09,53,13.70
2008,08,30,09,54,9.00
2008,08,30,09,55,5.80
2008,08,30,09,56,6.70
2008,08,30,09,57,7.10
2008,08,30,09,58,5.80
2008,08,30,09,59,8.20
2008,08,30,10,00,9.40
2008,08,30,10,01,6.50
2008,08,30,10,02,3.90
2008,08,30,10,03,4.80
2008,08,30,10,04,4.30
2008,08,30,10,05,8.20
2008,08,30,10,06,10.20
2008,08,30,10,07,9.40
2008,08,30,10,08,9.30
2008,08,30,10,09,9.10
2008,08,30,10,10,7.90
2008,08,30,10,11,5.40
2008,08,30,10,12,6.50
2008,08,30,10,13,5.80
2008,08,30,10,14,13.40
2008,08,30,10,15,9.20
2008,08,30,10,16,10.80
2008,08,30,10,17,10.20
2008,08,30,10,18,9.70
2008,08,30,10,19,11.40
2008,08,30,10,20,7.30
2008,08,30,10,21,6.50
2008,08,30,10,22,8.50
2008,08,30,10,23,5.20
2008,08,30,10,24,8.50
2008,08,30,10,25,9.70
2008,08,30,10,26,9.10
2008,08,30,10,27,6.00
2008,08,30,10,28,7.20
2008,08,30,10,29,6.40
2008,08,30,10,30,8.60
2008,08,30,10,31,9.70
2008,08,30,10,32,6.00
2008,08,30,10,33,3.90
2008,08,30,10,34,7.00
2008,08,30,10,35,7.80
2008,08,30,10,36,9.40
2008,08,30,10,37,7.60
2008,08,30,10,38,10.30
2008,08,30,10,39,9.30
2008,08,30,10,40,9.60
2008,08,30,10,41,7.50
2008,08,30,10,42,6.30
2008,08,30,10,43,6.10
2008,08,30,10,44,6.20
2008,08,30,10,45,4.20
2008,08,30,10,46,12.10
2008,08,30,10,47,8.80
2008,08,30,10,48,9.40
2008,08,30,10,49,5.80
2008,08,30,10,50,10.20
2008,08,30,10,51,8.60
2008,08,30,10,52,8.60
2008,08,30,10,53,6.90
2008,08,30,10,54,7.20
2008,08,30,10,55,8.60
2008,08,30,10,56,6.10
2008,08,30,10,57,2.50
2008,08,30,10,58,6.70
2008,08,30,10,59,6.00
2008,08,30,11,00,8.90
2008,08,30,11,01,9.30
2008,08,30,11,02,8.70
2008,08,30,11,03,7.20
2008,08,30,11,04,6.80
2008,08,30,11,05,7.20
2008,08,30,11,06,5.90
2008,08,30,11,07,4.70
2008,08,30,11,08,5.10
2008,08,30,11,09,7.70
2008,08,30,11,10,3.20
2008,08,30,11,11,7.30
2008,08,30,11,12,3.00
2008,08,30,11,13,1.70
2008,08,30,11,14,1.80
2008,08,30,11,15,10.30
2008,08,30,11,16,6.50
2008,08,30,11,17,6.50
2008,08,30,11,18,7.00
2008,08,30,11,19,6.50
2008,08,30,11,20,3.10
2008,08,30,11,21,2.60
2008,08,30,11,22,6.00
2008,08,30,11,23,7.80
2008,08,30,11,24,4.20
2008,08,30,11,25,5.70
2008,08,30,11,26,1.30
2008,08,30,11,27,7.90
2008,08,30,11,28,4.70
2008,08,30,11,29,5.30
2008,08,30,11,30,6.60
2008,08,30,11,31,6.80
2008,08,30,11,32,6.20
2008,08,30,11,33,1.70
2008,08,30,11,34,4.90
2008,08,30,11,35,5.40
2008,08,30,11,36,5.30
2008,08,30,11,37,1.70
2008,08,30,11,38,3.80
2008,08,30,11,39,2.10
2008,08,30,11,40,4.80
2008,08,30,11,41,7.20
2008,08,30,11,42,5.60
2008,08,30,11,43,5.70
2008,08,30,11,44,5.10
2008,08,30,11,45,6.10
2008,08,30,11,46,3.90
2008,08,30,11,47,1.30
2008,08,30,11,48,5.70
2008,08,30,11,49,5.90
2008,08,30,11,50,3.50
2008,08,30,11,51,2.50
2008,08,30,11,52,2.10
2008,08,30,11,53,6.80
2008,08,30,11,54,3.60
2008,08,30,11,55,3.00
2008,08,30,11,56,3.40
2008,08,30,11,57,3.40
2008,08,30,11,58,3.60
2008,08,30,11,59,2.90
2008,08,30,12,00,5.10
2008,08,30,12,01,6.10
2008,08,30,12,02,2.40
2008,08,30,12,03,1.50
2008,08,30,12,04,2.90
2008,08,30,12,05,7.30
2008,08,30,12,06,3.70
2008,08,30,12,07,1.50
2008,08,30,12,08,4.40
2008,08,30,12,09,2.70
2008,08,30,12,10,1.50
2008,08,30,12,11,4.60
2008,08,30,12,12,6.50
2008,08,30,12,13,2.50
2008,08,30,12,14,6.30
2008,08,30,12,15,4.50
2008,08,30,12,16,6.50
2008,08,30,12,17,7.30
2008,08,30,12,18,8.00
2008,08,30,12,19,7.50
2008,08,30,12,20,2.70
2008,08,30,12,21,6.70
2008,08,30,12,22,7.80
2008,08,30,12,23,6.40
2008,08,30,12,24,4.00
2008,08,30,12,25,2.20
2008,08,30,12,26,2.20
2008,08,30,12,27,3.60
2008,08,30,12,28,3.70
2008,08,30,12,29,9.50
2008,08,30,12,30,8.30
2008,08,30,12,31,4.30
2008,08,30,12,32,6.00
2008,08,30,12,33,6.40
2008,08,30,12,34,6.40
2008,08,30,12,35,5.40
2008,08,30,12,36,3.40
2008,08,30,12,37,4.60
2008,08,30,12,38,6.00
2008,08,30,12,39,7.50
2008,08,30,12,40,2.70
2008,08,30,12,41,2.20
2008,08,30,12,42,10.70
2008,08,30,12,43,7.70
2008,08,30,12,44,2.90
2008,08,30,12,45,2.90
2008,08,30,12,46,3.50
2008,08,30,12,47,2.90
2008,08,30,12,48,5.40
2008,08,30,12,49,5.80
2008,08,30,12,50,5.40
2008,08,30,12,51,5.40
2008,08,30,12,52,6.80
2008,08,30,12,53,4.70
2008,08,30,12,54,8.20
2008,08,30,12,55,2.10
2008,08,30,12,56,1.90
2008,08,30,12,57,3.10
2008,08,30,12,58,5.20
2008,08,30,12,59,3.50
2008,08,30,13,00,7.40
2008,08,30,13,01,6.50
2008,08,30,13,02,3.00
2008,08,30,13,03,5.50
2008,08,30,13,04,2.70
2008,08,30,13,05,5.00
2008,08,30,13,06,3.10
2008,08,30,13,07,8.40
2008,08,30,13,08,6.30
2008,08,30,13,09,7.40
2008,08,30,13,10,5.30
2008,08,30,13,11,7.90
2008,08,30,13,12,7.20
2008,08,30,13,13,5.20
2008,08,30,13,14,5.80
2008,08,30,13,15,6.90
2008,08,30,13,16,5.40
2008,08,30,13,17,4.30
2008,08,30,13,18,3.20
2008,08,30,13,19,7.60
2008,08,30,13,20,5.00
2008,08,30,13,21,5.40
2008,08,30,13,22,7.30
2008,08,30,13,23,3.00
2008,08,30,13,24,7.20
2008,08,30,13,25,6.40
2008,08,30,13,26,6.20
2008,08,30,13,27,2.20
2008,08,30,13,28,3.80
2008,08,30,13,29,5.60
2008,08,30,13,30,5.80
2008,08,30,13,31,6.40
2008,08,30,13,32,9.50
2008,08,30,13,33,6.20
2008,08,30,13,34,3.00
2008,08,30,13,35,4.40
2008,08,30,13,36,2.20
2008,08,30,13,37,2.30
2008,08,30,13,38,6.90
2008,08,30,13,39,5.20
2008,08,30,13,40,1.40
2008,08,30,13,41,4.10
2008,08,30,13,42,4.60
2008,08,30,13,43,4.90
2008,08,30,13,44,3.70
2008,08,30,13,45,3.10
2008,08,30,13,46,7.00
2008,08,30,13,47,3.00
2008,08,30,13,48,6.90
2008,08,30,13,49,7.40
2008,08,30,13,50,6.90
2008,08,30,13,51,8.00
2008,08,30,13,52,4.50
2008,08,30,13,53,5.00
2008,08,30,13,54,3.70
2008,08,30,13,55,3.70
2008,08,30,13,56,4.60
2008,08,30,13,57,2.80
2008,08,30,13,58,1.70
2008,08,30,13,59,5.40
2008,08,30,14,00,5.10
2008,08,30,14,01,5.90
2008,08,30,14,02,7.50
2008,08,30,14,03,8.10
2008,08,30,14,04,5.60
2008,08,30,14,05,3.90
2008,08,30,14,06,2.70
2008,08,30,14,07,3.50
2008,08,30,14,08,5.80
2008,08,30,14,09,4.40
2008,08,30,14,10,4.40
2008,08,30,14,11,9.30
2008,08,30,14,12,7.30
2008,08,30,14,13,5.60
2008,08,30,14,14,6.90
2008,08,30,14,15,6.40
2008,08,30,14,16,3.50
2008,08,30,14,17,5.50
2008,08,30,14,18,2.10
2008,08,30,14,19,4.10
2008,08,30,14,20,3.80
2008,08,30,14,21,3.60
2008,08,30,14,22,4.90
2008,08,30,14,23,4.80
2008,08,30,14,24,6.80
2008,08,30,14,25,5.10
2008,08,30,14,26,6.70
2008,08,30,14,27,3.90
2008,08,30,14,28,2.80
2008,08,30,14,29,2.60
2008,08,30,14,30,3.10
2008,08,30,14,31,4.80
2008,08,30,14,32,4.40
2008,08,30,14,33,0.80
2008,08,30,14,34,5.60
2008,08,30,14,35,4.20
2008,08,30,14,36,5.70
2008,08,30,14,37,2.70
2008,08,30,14,38,2.50
2008,08,30,14,39,8.00
2008,08,30,14,40,7.00
2008,08,30,14,41,5.50
2008,08,30,14,42,5.90
2008,08,30,14,43,3.00
2008,08,30,14,44,3.10
2008,08,30,14,45,4.10
2008,08,30,14,46,3.30
2008,08,30,14,47,3.70
2008,08,30,14,48,6.00
2008,08,30,14,49,4.70
2008,08,30,14,50,4.90
2008,08,30,14,51,9.90
2008,08,30,14,52,5.40
2008,08,30,14,53,6.00
2008,08,30,14,54,3.50
2008,08,30,14,55,5.60
2008,08,30,14,56,10.00
2008,08,30,14,57,5.30
2008,08,30,14,58,4.00
2008,08,30,14,59,7.30
2008,08,30,15,00,4.20
2008,08,30,15,01,5.00
2008,08,30,15,02,3.90
2008,08,30,15,03,5.10
2008,08,30,15,04,3.20
2008,08,30,15,05,2.10
2008,08,30,15,06,5.60
2008,08,30,15,07,7.50
2008,08,30,15,08,5.30
2008,08,30,15,09,2.50
2008,08,30,15,10,5.00
2008,08,30,15,11,5.30
2008,08,30,15,12,8.10
2008,08,30,15,13,6.00
2008,08,30,15,14,5.10
2008,08,30,15,15,7.80
2008,08,30,15,16,4.90
2008,08,30,15,17,6.80
2008,08,30,15,18,3.00
2008,08,30,15,19,5.40
2008,08,30,15,20,4.60
2008,08,30,15,21,5.60
2008,08,30,15,22,5.70
2008,08,30,15,23,2.40
2008,08,30,15,24,4.20
2008,08,30,15,25,5.90
2008,08,30,15,26,4.80
2008,08,30,15,27,0.80
2008,08,30,15,28,5.60
2008,08,30,15,29,4.60
2008,08,30,15,30,1.70
2008,08,30,15,31,3.40
2008,08,30,15,32,3.60
2008,08,30,15,33,4.20
2008,08,30,15,34,5.30
2008,08,30,15,35,0.70
2008,08,30,15,36,3.40
2008,08,30,15,37,3.80
2008,08,30,15,38,1.70
2008,08,30,15,39,2.10
2008,08,30,15,40,3.70
2008,08,30,15,41,0.60
2008,08,30,15,42,3.20
2008,08,30,15,43,2.70
2008,08,30,15,44,2.30
2008,08,30,15,45,3.90
2008,08,30,15,46,5.90
2008,08,30,15,47,6.00
2008,08,30,15,48,5.30
2008,08,30,15,49,5.90
2008,08,30,15,50,2.80
2008,08,30,15,51,3.70
2008,08,30,15,52,0.60
2008,08,30,15,53,5.30
2008,08,30,15,54,4.80
2008,08,30,15,55,2.70
2008,08,30,15,56,3.60
2008,08,30,15,57,4.80
2008,08,30,15,58,8.00
2008,08,30,15,59,8.00
2008,08,30,16,00,3.90
2008,08,30,16,01,2.30
2008,08,30,16,02,1.40
2008,08,30,16,03,4.70
2008,08,30,16,04,5.30
2008,08,30,16,05,4.50
2008,08,30,16,06,10.60
2008,08,30,16,07,7.20
2008,08,30,16,08,3.20
2008,08,30,16,09,3.00
2008,08,30,16,10,4.00
2008,08,30,16,11,4.50
2008,08,30,16,12,1.60
2008,08,30,16,13,5.30
2008,08,30,16,14,2.30
2008,08,30,16,15,0.70
2008,08,30,16,16,1.90
2008,08,30,16,17,4.70
2008,08,30,16,18,4.10
2008,08,30,16,19,3.90
2008,08,30,16,20,6.80
2008,08,30,16,21,4.60
2008,08,30,16,22,5.90
2008,08,30,16,23,4.00
2008,08,30,16,24,8.10
2008,08,30,16,25,4.70
2008,08,30,16,26,5.60
2008,08,30,16,27,7.50
2008,08,30,16,28,8.10
2008,08,30,16,29,5.60
2008,08,30,16,30,5.30
2008,08,30,16,31,6.00
2008,08,30,16,32,5.30
2008,08,30,16,33,5.60
2008,08,30,16,34,3.70
2008,08,30,16,35,2.80
2008,08,30,16,36,5.80
2008,08,30,16,37,6.60
2008,08,30,16,38,3.60
2008,08,30,16,39,5.70
2008,08,30,16,40,4.30
2008,08,30,16,41,2.60
2008,08,30,16,42,1.80
2008,08,30,16,43,1.40
2008,08,30,16,44,0.40
2008,08,30,16,45,0.80
2008,08,30,16,46,0.20
2008,08,30,16,47,1.60
2008,08,30,16,48,1.40
2008,08,30,16,49,2.90
2008,08,30,16,50,1.40
2008,08,30,16,51,0.60
2008,08,30,16,52,3.70
2008,08,30,16,53,1.10
2008,08,30,16,54,2.60
2008,08,30,16,55,3.60
2008,08,30,16,56,2.90
2008,08,30,16,57,0.50
2008,08,30,16,58,0.20
2008,08,30,16,59,0.20
2008,08,30,17,00,0.80
2008,08,30,17,01,0.90
2008,08,30,17,02,0.50
2008,08,30,17,03,0.10
2008,08,30,17,04,1.60
2008,08,30,17,05,1.60
2008,08,30,17,06,1.40
2008,08,30,17,07,0.80
2008,08,30,17,08,0.50
2008,08,30,17,09,0.80
2008,08,30,17,10,1.40
2008,08,30,17,11,0.30
2008,08,30,17,12,1.20
2008,08,30,17,13,1.40
2008,08,30,17,14,2.20
2008,08,30,17,15,1.40
2008,08,30,17,16,1.20
2008,08,30,17,17,0.40
2008,08,30,17,18,1.50
2008,08,30,17,19,3.10
2008,08,30,17,20,3.00
2008,08,30,17,21,1.90
2008,08,30,17,22,2.60
2008,08,30,17,23,2.00
2008,08,30,17,24,2.00
2008,08,30,17,25,1.90
2008,08,30,17,26,2.50
2008,08,30,17,27,2.70
2008,08,30,17,28,4.00
2008,08,30,17,29,2.90
2008,08,30,17,30,0.70
2008,08,30,17,31,1.30
2008,08,30,17,32,2.80
2008,08,30,17,33,1.80
2008,08,30,17,34,0.80
2008,08,30,17,35,1.50
2008,08,30,17,36,1.80
2008,08,30,17,37,2.10
2008,08,30,17,38,2.90
2008,08,30,17,39,0.30
2008,08,30,17,40,0.20
2008,08,30,17,41,0.20
2008,08,30,17,42,0.50
2008,08,30,17,43,1.40
2008,08,30,17,44,1.60
2008,08,30,17,45,0.10
2008,08,30,17,46,0.10
2008,08,30,17,47,0.30
2008,08,30,17,48,0.40
2008,08,30,17,49,1.30
2008,08,30,17,50,2.60
2008,08,30,17,51,1.10
2008,08,30,17,52,2.40
2008,08,30,17,53,1.10
2008,08,30,17,54,0.10
2008,08,30,17,55,0.70
2008,08,30,17,56,0.00
2008,08,30,17,57,1.80
2008,08,30,17,58,0.30
2008,08,30,17,59,0.20
2008,08,30,18,00,0.50
2008,08,30,18,01,2.30
2008,08,30,18,02,2.60
2008,08,30,18,03,3.20
2008,08,30,18,04,1.90
2008,08,30,18,05,1.90
2008,08,30,18,06,1.50
2008,08,30,18,07,0.60
2008,08,30,18,08,0.40
2008,08,30,18,09,1.50
2008,08,30,18,10,2.30
2008,08,30,18,11,2.30
2008,08,30,18,12,0.80
2008,08,30,18,13,0.20
2008,08,30,18,14,0.60
2008,08,30,18,15,0.60
2008,08,30,18,16,0.20
2008,08,30,18,17,0.00